Time,TemperatureF,DewpointF,PressureIn,WindDirection,WindDirectionDegrees,WindSpeedMPH,WindSpeedGustMPH,Humidity,HourlyPrecipIn,Conditions,Clouds,dailyrainin,SoftwareType,DateUTC
2013-03-23 00:00:00,61.7,60.0,29.99,NNE,17,0.0,0.0,94,0.01,,---,0.08,VWS V14.00,2013-03-23 04:00:00,
2013-03-23 00:01:00,61.7,60.0,29.99,NNE,17,0.0,0.0,94,0.01,,---,0.08,VWS V14.00,2013-03-23 04:01:00,
2013-03-23 00:05:00,61.8,60.1,29.99,NNE,17,0.0,0.0,94,0.01,,---,0.00,VWS V14.00,2013-03-23 04:05:00,
2013-03-23 00:10:00,61.9,60.2,29.99,NNE,17,0.0,0.0,94,0.01,,---,0.00,VWS V14.00,2013-03-23 04:10:00,
2013-03-23 00:16:00,61.9,60.2,29.99,NNE,17,0.0,0.0,94,0.01,,---,0.00,VWS V14.00,2013-03-23 04:16:00,
2013-03-23 00:21:00,62.0,60.3,29.99,NNE,17,0.0,0.0,94,0.01,,---,0.00,VWS V14.00,2013-03-23 04:21:00,
2013-03-23 00:26:00,62.0,60.3,29.99,NNE,17,0.0,0.0,94,0.01,,---,0.00,VWS V14.00,2013-03-23 04:26:00,
2013-03-23 00:30:00,62.1,60.4,29.99,NNE,17,0.0,1.0,94,0.01,,---,0.00,VWS V14.00,2013-03-23 04:30:00,
2013-03-23 00:31:00,62.1,60.4,29.99,NNE,17,0.0,1.0,94,0.01,,---,0.00,VWS V14.00,2013-03-23 04:31:00,
2013-03-23 00:36:00,62.1,60.7,29.99,NNE,17,0.0,0.0,95,0.01,,---,0.00,VWS V14.00,2013-03-23 04:36:00,
2013-03-23 00:42:00,62.1,60.7,29.99,NNE,17,0.0,0.0,95,0.01,,---,0.00,VWS V14.00,2013-03-23 04:42:00,
2013-03-23 00:47:00,62.2,60.8,29.99,NNE,17,0.0,0.0,95,0.01,,---,0.00,VWS V14.00,2013-03-23 04:47:00,
2013-03-23 00:52:00,62.2,60.8,29.98,NNE,17,0.0,0.0,95,0.01,,---,0.00,VWS V14.00,2013-03-23 04:52:00,
2013-03-23 00:57:00,62.2,60.8,29.98,NNE,17,0.0,0.0,95,0.01,,---,0.00,VWS V14.00,2013-03-23 04:57:00,
2013-03-23 01:00:00,62.3,60.8,29.98,NNE,17,0.0,0.0,95,0.01,,---,0.00,VWS V14.00,2013-03-23 05:00:00,
2013-03-23 01:02:00,62.3,60.8,29.98,NNE,17,0.0,0.0,95,0.00,,---,0.00,VWS V14.00,2013-03-23 05:02:00,
2013-03-23 01:07:00,62.3,60.8,29.97,NNE,17,0.0,0.0,95,0.00,,---,0.00,VWS V14.00,2013-03-23 05:07:00,
2013-03-23 01:12:00,62.3,60.8,29.97,NNE,17,0.0,0.0,95,0.01,,---,0.01,VWS V14.00,2013-03-23 05:12:00,
2013-03-23 01:18:00,62.2,60.8,29.97,NNE,17,0.0,0.0,95,0.01,,---,0.01,VWS V14.00,2013-03-23 05:18:00,
2013-03-23 01:23:00,62.2,60.8,29.97,NNE,17,0.0,0.0,95,0.01,,---,0.01,VWS V14.00,2013-03-23 05:23:00,
2013-03-23 01:28:00,62.2,60.8,29.97,NNE,17,0.0,0.0,95,0.01,,---,0.01,VWS V14.00,2013-03-23 05:28:00,
2013-03-23 01:30:00,62.2,60.8,29.97,NNE,17,0.0,0.0,95,0.01,,---,0.01,VWS V14.00,2013-03-23 05:30:00,
2013-03-23 01:33:00,62.2,60.8,29.97,NNE,17,0.0,0.0,95,0.01,,---,0.01,VWS V14.00,2013-03-23 05:33:00,
2013-03-23 01:38:00,62.3,60.8,29.97,NNE,17,0.0,1.0,95,0.01,,---,0.01,VWS V14.00,2013-03-23 05:38:00,
2013-03-23 01:44:00,62.4,61.0,29.97,NNE,17,0.0,1.0,95,0.01,,---,0.01,VWS V14.00,2013-03-23 05:44:00,
2013-03-23 01:49:00,62.4,61.0,29.97,NNE,17,0.0,1.0,95,0.01,,---,0.01,VWS V14.00,2013-03-23 05:49:00,
2013-03-23 01:54:00,62.5,61.0,29.97,NNE,17,0.0,1.0,95,0.01,,---,0.01,VWS V14.00,2013-03-23 05:54:00,
2013-03-23 01:59:00,62.6,61.2,29.97,NNE,17,0.0,1.0,95,0.01,,---,0.01,VWS V14.00,2013-03-23 05:59:00,
2013-03-23 02:00:00,62.6,61.2,29.97,NNE,17,0.0,1.0,95,0.01,,---,0.01,VWS V14.00,2013-03-23 06:00:00,
2013-03-23 02:05:00,62.6,61.2,29.97,NNE,17,0.0,0.0,95,0.01,,---,0.01,VWS V14.00,2013-03-23 06:05:00,
2013-03-23 02:10:00,62.6,61.2,29.96,NNE,17,0.0,0.0,95,0.01,,---,0.01,VWS V14.00,2013-03-23 06:10:00,
2013-03-23 02:15:00,62.7,61.2,29.96,NNE,17,0.0,0.0,95,0.01,,---,0.01,VWS V14.00,2013-03-23 06:15:00,
2013-03-23 02:21:00,62.7,61.2,29.96,NNE,17,0.0,0.0,95,0.01,,---,0.01,VWS V14.00,2013-03-23 06:21:00,
2013-03-23 02:27:00,62.6,61.2,29.96,NNE,17,0.0,0.0,95,0.01,,---,0.01,VWS V14.00,2013-03-23 06:27:00,
2013-03-23 02:30:00,62.6,61.2,29.96,NNE,17,0.0,0.0,95,0.01,,---,0.01,VWS V14.00,2013-03-23 06:30:00,
2013-03-23 02:32:00,62.6,61.2,29.96,NNE,17,0.0,0.0,95,0.00,,---,0.01,VWS V14.00,2013-03-23 06:32:00,
2013-03-23 02:37:00,62.6,61.2,29.95,NNE,17,0.0,0.0,95,0.00,,---,0.01,VWS V14.00,2013-03-23 06:37:00,
2013-03-23 02:42:00,62.6,61.2,29.95,NNE,17,0.0,0.0,95,0.00,,---,0.01,VWS V14.00,2013-03-23 06:42:00,
2013-03-23 02:48:00,62.6,61.2,29.95,NNE,17,0.0,0.0,95,0.00,,---,0.01,VWS V14.00,2013-03-23 06:48:00,
2013-03-23 02:53:00,62.7,61.2,29.95,NNE,17,0.0,0.0,95,0.00,,---,0.01,VWS V14.00,2013-03-23 06:53:00,
2013-03-23 02:58:00,62.7,61.2,29.95,NNE,17,0.0,0.0,95,0.00,,---,0.01,VWS V14.00,2013-03-23 06:58:00,
2013-03-23 03:00:00,62.7,61.2,29.94,NNE,17,0.0,0.0,95,0.00,,---,0.01,VWS V14.00,2013-03-23 07:00:00,
2013-03-23 03:03:00,62.7,61.2,29.94,NNE,17,0.0,0.0,95,0.00,,---,0.01,VWS V14.00,2013-03-23 07:03:00,
2013-03-23 03:08:00,62.7,61.2,29.94,NNE,17,0.0,0.0,95,0.00,,---,0.01,VWS V14.00,2013-03-23 07:08:00,
2013-03-23 03:13:00,62.7,61.2,29.94,NNE,17,0.0,0.0,95,0.00,,---,0.01,VWS V14.00,2013-03-23 07:13:00,
2013-03-23 03:18:00,62.6,61.2,29.94,NNE,17,0.0,0.0,95,0.00,,---,0.01,VWS V14.00,2013-03-23 07:18:00,
2013-03-23 03:23:00,62.5,61.0,29.93,NNE,17,0.0,0.0,95,0.00,,---,0.01,VWS V14.00,2013-03-23 07:23:00,
2013-03-23 03:29:00,62.6,61.2,29.93,NNE,17,0.0,0.0,95,0.00,,---,0.01,VWS V14.00,2013-03-23 07:29:00,
2013-03-23 03:30:00,62.6,61.2,29.93,NNE,17,0.0,0.0,95,0.00,,---,0.01,VWS V14.00,2013-03-23 07:30:00,
2013-03-23 03:34:00,62.5,61.0,29.93,NNE,17,0.0,0.0,95,0.00,,---,0.01,VWS V14.00,2013-03-23 07:34:00,
2013-03-23 03:39:00,62.5,61.0,29.93,NNE,17,0.0,0.0,95,0.00,,---,0.01,VWS V14.00,2013-03-23 07:39:00,
2013-03-23 03:44:00,62.5,61.0,29.93,NNE,17,0.0,0.0,95,0.00,,---,0.01,VWS V14.00,2013-03-23 07:44:00,
2013-03-23 03:49:00,62.5,61.0,29.93,NNE,17,0.0,0.0,95,0.00,,---,0.01,VWS V14.00,2013-03-23 07:49:00,
2013-03-23 03:54:00,62.4,61.0,29.93,NNE,17,0.0,0.0,95,0.00,,---,0.01,VWS V14.00,2013-03-23 07:54:00,
2013-03-23 04:00:00,62.3,60.8,29.93,NNE,17,0.0,0.0,95,0.00,,---,0.01,VWS V14.00,2013-03-23 08:00:00,
2013-03-23 04:05:00,62.3,60.8,29.93,NNE,17,0.0,0.0,95,0.00,,---,0.01,VWS V14.00,2013-03-23 08:05:00,
2013-03-23 04:10:00,62.3,60.8,29.92,NNE,17,0.0,0.0,95,0.00,,---,0.01,VWS V14.00,2013-03-23 08:10:00,
2013-03-23 04:15:00,62.2,60.8,29.92,NNE,17,0.0,0.0,95,0.00,,---,0.01,VWS V14.00,2013-03-23 08:15:00,
2013-03-23 04:21:00,62.2,60.8,29.92,NNE,17,0.0,0.0,95,0.00,,---,0.01,VWS V14.00,2013-03-23 08:21:00,
2013-03-23 04:26:00,62.2,60.8,29.92,NNE,17,0.0,0.0,95,0.00,,---,0.01,VWS V14.00,2013-03-23 08:26:00,
2013-03-23 04:30:00,62.1,60.7,29.92,NNE,17,0.0,0.0,95,0.00,,---,0.01,VWS V14.00,2013-03-23 08:30:00,
2013-03-23 04:31:00,62.1,60.7,29.92,NNE,17,0.0,0.0,95,0.00,,---,0.01,VWS V14.00,2013-03-23 08:31:00,
2013-03-23 04:36:00,62.1,60.7,29.91,NNE,17,0.0,0.0,95,0.00,,---,0.01,VWS V14.00,2013-03-23 08:36:00,
2013-03-23 04:41:00,62.0,60.6,29.91,NNE,17,0.0,0.0,95,0.00,,---,0.01,VWS V14.00,2013-03-23 08:41:00,
2013-03-23 04:46:00,61.9,60.5,29.91,NNE,17,0.0,0.0,95,0.00,,---,0.01,VWS V14.00,2013-03-23 08:46:00,
2013-03-23 04:52:00,61.8,60.4,29.91,NNE,17,0.0,0.0,95,0.00,,---,0.01,VWS V14.00,2013-03-23 08:52:00,
2013-03-23 04:57:00,61.9,60.5,29.91,NNE,17,0.0,0.0,95,0.00,,---,0.01,VWS V14.00,2013-03-23 08:57:00,
2013-03-23 05:00:00,62.0,60.6,29.91,NNE,17,0.0,0.0,95,0.00,,---,0.01,VWS V14.00,2013-03-23 09:00:00,
2013-03-23 05:02:00,62.0,60.6,29.90,NNE,17,0.0,0.0,95,0.00,,---,0.01,VWS V14.00,2013-03-23 09:02:00,
2013-03-23 05:07:00,62.3,60.8,29.90,NNE,17,0.0,0.0,95,0.00,,---,0.01,VWS V14.00,2013-03-23 09:07:00,
2013-03-23 05:13:00,62.4,61.0,29.90,NNE,17,0.0,0.0,95,0.00,,---,0.01,VWS V14.00,2013-03-23 09:13:00,
2013-03-23 05:18:00,62.5,61.0,29.90,NNE,17,0.0,0.0,95,0.00,,---,0.01,VWS V14.00,2013-03-23 09:18:00,
2013-03-23 05:23:00,62.6,61.2,29.90,NNE,17,0.0,0.0,95,0.00,,---,0.01,VWS V14.00,2013-03-23 09:23:00,
2013-03-23 05:28:00,62.7,61.2,29.91,NNE,17,0.0,1.0,95,0.00,,---,0.01,VWS V14.00,2013-03-23 09:28:00,
2013-03-23 05:30:00,62.8,61.3,29.91,NNE,17,0.0,1.0,95,0.00,,---,0.01,VWS V14.00,2013-03-23 09:30:00,
2013-03-23 05:33:00,62.8,61.3,29.91,NNE,17,0.0,0.0,95,0.00,,---,0.01,VWS V14.00,2013-03-23 09:33:00,
2013-03-23 05:38:00,62.8,61.3,29.91,NNE,17,0.0,0.0,95,0.00,,---,0.01,VWS V14.00,2013-03-23 09:38:00,
2013-03-23 05:43:00,62.9,61.5,29.91,NNE,17,0.0,0.0,95,0.00,,---,0.01,VWS V14.00,2013-03-23 09:43:00,
2013-03-23 05:48:00,63.0,61.8,29.91,NNE,17,0.0,0.0,96,0.00,,---,0.01,VWS V14.00,2013-03-23 09:48:00,
2013-03-23 05:53:00,63.0,61.8,29.91,NNE,17,0.0,0.0,96,0.00,,---,0.01,VWS V14.00,2013-03-23 09:53:00,
2013-03-23 05:59:00,63.1,61.9,29.91,NNE,17,0.0,0.0,96,0.00,,---,0.01,VWS V14.00,2013-03-23 09:59:00,
2013-03-23 06:00:00,63.1,61.9,29.91,NNE,17,0.0,0.0,96,0.00,,---,0.01,VWS V14.00,2013-03-23 10:00:00,
2013-03-23 06:04:00,63.2,62.0,29.91,NNE,17,0.0,0.0,96,0.00,,---,0.01,VWS V14.00,2013-03-23 10:04:00,
2013-03-23 06:09:00,63.2,62.0,29.91,NNE,17,0.0,0.0,96,0.00,,---,0.01,VWS V14.00,2013-03-23 10:09:00,
2013-03-23 06:14:00,63.3,62.1,29.92,NNE,17,0.0,0.0,96,0.00,,---,0.01,VWS V14.00,2013-03-23 10:14:00,
2013-03-23 06:19:00,63.5,62.3,29.92,NNE,17,0.0,0.0,96,0.00,,---,0.01,VWS V14.00,2013-03-23 10:19:00,
2013-03-23 06:24:00,63.6,62.4,29.92,NNE,17,0.0,0.0,96,0.00,,---,0.01,VWS V14.00,2013-03-23 10:24:00,
2013-03-23 06:30:00,63.5,62.3,29.92,NNE,17,0.0,0.0,96,0.00,,---,0.01,VWS V14.00,2013-03-23 10:30:00,
2013-03-23 06:35:00,63.5,62.3,29.92,NNE,17,0.0,0.0,96,0.00,,---,0.01,VWS V14.00,2013-03-23 10:35:00,
2013-03-23 06:40:00,63.6,62.4,29.92,NNE,17,0.0,0.0,96,0.00,,---,0.01,VWS V14.00,2013-03-23 10:40:00,
2013-03-23 06:45:00,63.8,62.6,29.92,NNE,17,0.0,0.0,96,0.00,,---,0.01,VWS V14.00,2013-03-23 10:45:00,
2013-03-23 06:50:00,63.8,62.6,29.92,NNE,17,0.0,0.0,96,0.00,,---,0.01,VWS V14.00,2013-03-23 10:50:00,
2013-03-23 06:55:00,63.9,62.7,29.92,NNE,17,0.0,0.0,96,0.00,,---,0.01,VWS V14.00,2013-03-23 10:55:00,
2013-03-23 07:00:00,63.9,62.7,29.93,NNE,17,0.0,0.0,96,0.00,,---,0.01,VWS V14.00,2013-03-23 11:00:00,
2013-03-23 07:06:00,64.0,62.8,29.94,NNE,17,0.0,0.0,96,0.00,,---,0.01,VWS V14.00,2013-03-23 11:06:00,
2013-03-23 07:11:00,64.1,62.9,29.94,NNE,17,0.0,0.0,96,0.00,,---,0.01,VWS V14.00,2013-03-23 11:11:00,
2013-03-23 07:16:00,64.1,62.9,29.94,NNE,17,0.0,0.0,96,0.01,,---,0.02,VWS V14.00,2013-03-23 11:16:00,
2013-03-23 07:21:00,64.2,63.0,29.93,NNE,17,0.0,1.0,96,0.01,,---,0.02,VWS V14.00,2013-03-23 11:21:00,
2013-03-23 07:26:00,64.1,62.9,29.93,NNE,17,0.0,1.0,96,0.01,,---,0.02,VWS V14.00,2013-03-23 11:26:00,
2013-03-23 07:30:00,64.2,63.0,29.94,NNE,17,0.0,2.0,96,0.01,,---,0.02,VWS V14.00,2013-03-23 11:30:00,
2013-03-23 07:31:00,64.2,63.0,29.94,NNE,17,0.0,2.0,96,0.01,,---,0.02,VWS V14.00,2013-03-23 11:31:00,
2013-03-23 07:37:00,64.3,63.1,29.94,NNE,17,0.0,0.0,96,0.01,,---,0.02,VWS V14.00,2013-03-23 11:37:00,
2013-03-23 07:42:00,64.3,63.1,29.93,NNE,17,0.0,0.0,96,0.01,,---,0.02,VWS V14.00,2013-03-23 11:42:00,
2013-03-23 07:47:00,64.3,63.1,29.94,NNE,17,0.0,0.0,96,0.01,,---,0.02,VWS V14.00,2013-03-23 11:47:00,
2013-03-23 07:52:00,64.3,63.1,29.94,NNE,17,0.0,0.0,96,0.01,,---,0.02,VWS V14.00,2013-03-23 11:52:00,
2013-03-23 07:57:00,64.3,63.1,29.93,NNE,17,0.0,0.0,96,0.02,,---,0.03,VWS V14.00,2013-03-23 11:57:00,
2013-03-23 08:00:00,64.4,63.2,29.93,NNE,17,0.0,0.0,96,0.02,,---,0.03,VWS V14.00,2013-03-23 12:00:00,
2013-03-23 08:02:00,64.4,63.2,29.94,NNE,17,0.0,0.0,96,0.02,,---,0.03,VWS V14.00,2013-03-23 12:02:00,
2013-03-23 08:08:00,64.4,63.2,29.93,NNE,17,0.0,0.0,96,0.02,,---,0.03,VWS V14.00,2013-03-23 12:08:00,
2013-03-23 08:13:00,64.5,63.3,29.93,NNE,17,0.0,0.0,96,0.02,,---,0.03,VWS V14.00,2013-03-23 12:13:00,
2013-03-23 08:19:00,64.7,63.5,29.93,NNE,17,0.0,0.0,96,0.02,,---,0.03,VWS V14.00,2013-03-23 12:19:00,
2013-03-23 08:24:00,64.9,63.7,29.93,NNE,17,0.0,2.0,96,0.02,,---,0.03,VWS V14.00,2013-03-23 12:24:00,
2013-03-23 08:29:00,65.1,63.9,29.93,NNE,17,0.0,2.0,96,0.03,,---,0.04,VWS V14.00,2013-03-23 12:29:00,
2013-03-23 08:30:00,65.2,64.0,29.93,North,355,0.0,2.0,96,0.03,,---,0.04,VWS V14.00,2013-03-23 12:30:00,
2013-03-23 08:34:00,65.4,64.2,29.94,North,355,0.0,0.0,96,0.02,,---,0.04,VWS V14.00,2013-03-23 12:34:00,
2013-03-23 08:39:00,65.6,64.4,29.94,North,355,0.0,0.0,96,0.02,,---,0.04,VWS V14.00,2013-03-23 12:39:00,
2013-03-23 08:44:00,65.8,64.6,29.94,North,355,0.0,0.0,96,0.02,,---,0.04,VWS V14.00,2013-03-23 12:44:00,
2013-03-23 08:50:00,66.0,64.8,29.93,North,360,0.0,0.0,96,0.02,,---,0.04,VWS V14.00,2013-03-23 12:50:00,
2013-03-23 08:55:00,66.2,65.0,29.93,North,360,0.0,0.0,96,0.02,,---,0.04,VWS V14.00,2013-03-23 12:55:00,
2013-03-23 09:00:00,66.3,65.1,29.93,SW,231,0.0,3.0,96,0.02,,---,0.04,VWS V14.00,2013-03-23 13:00:00,
2013-03-23 09:06:00,66.4,65.2,29.93,SSW,193,0.0,0.0,96,0.01,,---,0.04,VWS V14.00,2013-03-23 13:06:00,
2013-03-23 09:11:00,66.6,65.4,29.93,SSW,193,0.0,0.0,96,0.01,,---,0.04,VWS V14.00,2013-03-23 13:11:00,
2013-03-23 09:16:00,66.8,65.6,29.93,SSW,212,0.0,2.0,96,0.02,,---,0.05,VWS V14.00,2013-03-23 13:16:00,
2013-03-23 09:22:00,66.9,65.7,29.93,SSW,209,0.0,2.0,96,0.02,,---,0.05,VWS V14.00,2013-03-23 13:22:00,
2013-03-23 09:27:00,67.2,66.0,29.93,SSW,209,0.0,2.0,96,0.02,,---,0.05,VWS V14.00,2013-03-23 13:27:00,
2013-03-23 09:30:00,67.2,66.0,29.93,SSW,199,0.0,3.0,96,0.02,,---,0.05,VWS V14.00,2013-03-23 13:30:00,
2013-03-23 09:32:00,67.2,66.0,29.93,SSW,200,0.0,0.0,96,0.01,,---,0.05,VWS V14.00,2013-03-23 13:32:00,
2013-03-23 09:37:00,67.1,65.9,29.93,SSW,199,0.0,1.0,96,0.01,,---,0.05,VWS V14.00,2013-03-23 13:37:00,
2013-03-23 09:43:00,67.3,66.1,29.93,SSW,199,0.0,1.0,96,0.01,,---,0.05,VWS V14.00,2013-03-23 13:43:00,
2013-03-23 09:48:00,67.6,66.4,29.92,South,190,2.0,2.0,96,0.01,,---,0.05,VWS V14.00,2013-03-23 13:48:00,
2013-03-23 09:53:00,67.8,66.6,29.92,South,190,0.0,2.0,96,0.01,,---,0.05,VWS V14.00,2013-03-23 13:53:00,
2013-03-23 09:58:00,68.1,66.9,29.92,South,190,0.0,2.0,96,0.01,,---,0.05,VWS V14.00,2013-03-23 13:58:00,
2013-03-23 10:00:00,68.3,67.1,29.92,South,190,0.0,2.0,96,0.01,,---,0.05,VWS V14.00,2013-03-23 14:00:00,
2013-03-23 10:04:00,68.5,67.3,29.92,South,190,0.0,0.0,96,0.02,,---,0.06,VWS V14.00,2013-03-23 14:04:00,
2013-03-23 10:09:00,68.7,67.5,29.92,South,190,0.0,0.0,96,0.02,,---,0.06,VWS V14.00,2013-03-23 14:09:00,
2013-03-23 10:14:00,69.0,68.1,29.92,South,190,0.0,0.0,97,0.02,,---,0.06,VWS V14.00,2013-03-23 14:14:00,
2013-03-23 10:19:00,69.3,68.4,29.91,SW,215,0.0,1.0,97,0.02,,---,0.06,VWS V14.00,2013-03-23 14:19:00,
2013-03-23 10:25:00,69.7,68.8,29.91,SW,225,0.0,1.0,97,0.02,,---,0.06,VWS V14.00,2013-03-23 14:25:00,
2013-03-23 10:30:00,69.9,69.0,29.91,South,180,0.0,4.0,97,0.02,,---,0.06,VWS V14.00,2013-03-23 14:30:00,
2013-03-23 10:35:00,70.2,69.0,29.91,South,174,0.0,4.0,96,0.01,,---,0.06,VWS V14.00,2013-03-23 14:35:00,
2013-03-23 10:40:00,70.3,69.4,29.91,SSE,161,0.0,4.0,97,0.01,,---,0.06,VWS V14.00,2013-03-23 14:40:00,
2013-03-23 10:46:00,70.7,69.5,29.91,West,259,0.0,4.0,96,0.01,,---,0.06,VWS V14.00,2013-03-23 14:46:00,
2013-03-23 10:51:00,71.3,70.4,29.91,SW,232,0.0,4.0,97,0.01,,---,0.06,VWS V14.00,2013-03-23 14:51:00,
2013-03-23 10:57:00,71.8,70.9,29.90,SSE,160,0.0,4.0,97,0.02,,---,0.07,VWS V14.00,2013-03-23 14:57:00,
2013-03-23 11:00:00,71.9,70.7,29.90,ESE,109,0.0,5.0,96,0.02,,---,0.07,VWS V14.00,2013-03-23 15:00:00,
2013-03-23 11:02:00,71.9,70.7,29.90,ESE,117,0.0,0.0,96,0.02,,---,0.07,VWS V14.00,2013-03-23 15:02:00,
2013-03-23 11:07:00,72.5,71.3,29.90,WSW,241,0.0,6.0,96,0.02,,---,0.07,VWS V14.00,2013-03-23 15:07:00,
2013-03-23 11:12:00,73.0,71.5,29.90,SE,145,0.0,6.0,95,0.02,,---,0.07,VWS V14.00,2013-03-23 15:12:00,
2013-03-23 11:18:00,73.5,71.7,29.90,WSW,238,0.0,6.0,94,0.02,,---,0.07,VWS V14.00,2013-03-23 15:18:00,
2013-03-23 11:23:00,74.1,71.9,29.90,SW,217,0.0,6.0,93,0.02,,---,0.07,VWS V14.00,2013-03-23 15:23:00,
2013-03-23 11:28:00,74.6,72.1,29.90,South,189,0.0,6.0,92,0.02,,---,0.07,VWS V14.00,2013-03-23 15:28:00,
2013-03-23 11:30:00,74.8,71.7,29.90,SSE,163,2.0,6.0,90,0.02,,---,0.07,VWS V14.00,2013-03-23 15:30:00,
2013-03-23 11:33:00,75.0,71.9,29.90,WSW,249,0.0,2.0,90,0.01,,---,0.07,VWS V14.00,2013-03-23 15:33:00,
2013-03-23 11:39:00,75.7,71.9,29.89,SSW,196,4.0,6.0,88,0.01,,---,0.07,VWS V14.00,2013-03-23 15:39:00,
2013-03-23 11:44:00,76.5,72.0,29.90,SSW,207,5.0,7.0,86,0.02,,---,0.08,VWS V14.00,2013-03-23 15:44:00,
2013-03-23 11:49:00,77.1,71.9,29.90,SW,234,4.0,10.0,84,0.02,,---,0.08,VWS V14.00,2013-03-23 15:49:00,
2013-03-23 11:55:00,77.8,72.2,29.89,SW,215,0.0,10.0,83,0.02,,---,0.08,VWS V14.00,2013-03-23 15:55:00,
2013-03-23 12:00:00,78.1,72.2,29.89,SSE,159,5.0,11.0,82,0.02,,---,0.08,VWS V14.00,2013-03-23 16:00:00,
2013-03-23 12:05:00,78.4,72.1,29.89,SSW,212,0.0,9.0,81,0.01,,---,0.08,VWS V14.00,2013-03-23 16:05:00,
2013-03-23 12:10:00,79.0,72.7,29.89,South,183,4.0,10.0,81,0.01,,---,0.08,VWS V14.00,2013-03-23 16:10:00,
2013-03-23 12:15:00,79.1,72.0,29.89,SW,236,5.0,10.0,79,0.01,,---,0.08,VWS V14.00,2013-03-23 16:15:00,
2013-03-23 12:20:00,79.4,72.3,29.89,SSW,198,3.0,10.0,79,0.01,,---,0.08,VWS V14.00,2013-03-23 16:20:00,
2013-03-23 12:26:00,79.3,71.8,29.89,South,175,1.0,12.0,78,0.01,,---,0.08,VWS V14.00,2013-03-23 16:26:00,
2013-03-23 12:30:00,79.4,71.9,29.89,SSW,195,1.0,12.0,78,0.01,,---,0.08,VWS V14.00,2013-03-23 16:30:00,
2013-03-23 12:31:00,79.4,71.9,29.89,SSW,195,1.0,12.0,78,0.01,,---,0.08,VWS V14.00,2013-03-23 16:31:00,
2013-03-23 12:36:00,79.6,72.1,29.88,South,185,0.0,9.0,78,0.01,,---,0.08,VWS V14.00,2013-03-23 16:36:00,
2013-03-23 12:42:00,80.1,72.2,29.88,South,189,0.0,9.0,77,0.02,,---,0.09,VWS V14.00,2013-03-23 16:42:00,
2013-03-23 12:47:00,80.2,72.3,29.88,SW,227,0.0,9.0,77,0.02,,---,0.09,VWS V14.00,2013-03-23 16:47:00,
2013-03-23 12:52:00,80.4,72.5,29.88,WSW,248,0.0,9.0,77,0.02,,---,0.09,VWS V14.00,2013-03-23 16:52:00,
2013-03-23 12:57:00,81.0,73.1,29.88,SSE,152,1.0,9.0,77,0.02,,---,0.09,VWS V14.00,2013-03-23 16:57:00,
2013-03-23 13:00:00,81.4,72.7,29.88,West,271,4.0,9.0,75,0.02,,---,0.09,VWS V14.00,2013-03-23 17:00:00,
2013-03-23 13:02:00,81.4,72.7,29.88,WSW,243,2.0,5.0,75,0.01,,---,0.09,VWS V14.00,2013-03-23 17:02:00,
2013-03-23 13:07:00,81.3,72.2,29.88,WSW,238,0.0,9.0,74,0.01,,---,0.09,VWS V14.00,2013-03-23 17:07:00,
2013-03-23 13:13:00,81.4,72.3,29.87,SSW,210,0.0,9.0,74,0.01,,---,0.09,VWS V14.00,2013-03-23 17:13:00,
2013-03-23 13:18:00,81.7,71.8,29.87,WSW,245,4.0,10.0,72,0.01,,---,0.09,VWS V14.00,2013-03-23 17:18:00,
2013-03-23 13:23:00,81.8,72.3,29.87,West,266,0.0,11.0,73,0.01,,---,0.09,VWS V14.00,2013-03-23 17:23:00,
2013-03-23 13:28:00,82.0,72.5,29.86,South,173,0.0,11.0,73,0.01,,---,0.09,VWS V14.00,2013-03-23 17:28:00,
2013-03-23 13:30:00,82.4,72.5,29.86,SW,216,0.0,11.0,72,0.01,,---,0.09,VWS V14.00,2013-03-23 17:30:00,
2013-03-23 13:33:00,82.8,72.0,29.86,South,188,0.0,6.0,70,0.01,,---,0.09,VWS V14.00,2013-03-23 17:33:00,
2013-03-23 13:39:00,83.2,72.0,29.85,WSW,246,0.0,9.0,69,0.01,,---,0.09,VWS V14.00,2013-03-23 17:39:00,
2013-03-23 13:44:00,83.6,72.4,29.85,South,174,0.0,9.0,69,0.01,,---,0.09,VWS V14.00,2013-03-23 17:44:00,
2013-03-23 13:49:00,84.2,72.5,29.85,WSW,240,0.0,9.0,68,0.01,,---,0.09,VWS V14.00,2013-03-23 17:49:00,
2013-03-23 13:54:00,84.2,72.5,29.85,WSW,248,1.0,12.0,68,0.01,,---,0.09,VWS V14.00,2013-03-23 17:54:00,
2013-03-23 14:00:00,84.4,72.2,29.84,South,190,0.0,12.0,67,0.01,,---,0.09,VWS V14.00,2013-03-23 18:00:00,
2013-03-23 14:05:00,84.5,71.4,29.84,SW,222,0.0,10.0,65,0.00,,---,0.09,VWS V14.00,2013-03-23 18:05:00,
2013-03-23 14:10:00,84.8,72.2,29.84,WSW,250,0.0,10.0,66,0.01,,---,0.10,VWS V14.00,2013-03-23 18:10:00,
2013-03-23 14:15:00,85.3,71.8,29.84,South,188,7.0,11.0,64,0.01,,---,0.10,VWS V14.00,2013-03-23 18:15:00,
2013-03-23 14:20:00,85.3,71.3,29.84,WSW,242,1.0,11.0,63,0.01,,---,0.10,VWS V14.00,2013-03-23 18:20:00,
2013-03-23 14:26:00,84.7,71.6,29.84,SSW,194,3.0,11.0,65,0.01,,---,0.10,VWS V14.00,2013-03-23 18:26:00,
2013-03-23 14:30:00,84.5,71.4,29.83,WSW,242,0.0,11.0,65,0.01,,---,0.10,VWS V14.00,2013-03-23 18:30:00,
2013-03-23 14:31:00,84.5,71.4,29.83,WSW,242,0.0,11.0,65,0.01,,---,0.10,VWS V14.00,2013-03-23 18:31:00,
2013-03-23 14:37:00,84.5,71.0,29.83,WSW,240,0.0,5.0,64,0.01,,---,0.10,VWS V14.00,2013-03-23 18:37:00,
2013-03-23 14:42:00,84.1,70.6,29.82,SSW,213,0.0,9.0,64,0.01,,---,0.10,VWS V14.00,2013-03-23 18:42:00,
2013-03-23 14:47:00,83.7,70.7,29.82,West,260,0.0,9.0,65,0.01,,---,0.10,VWS V14.00,2013-03-23 18:47:00,
2013-03-23 14:52:00,83.2,70.7,29.81,SW,235,1.0,9.0,66,0.01,,---,0.10,VWS V14.00,2013-03-23 18:52:00,
2013-03-23 14:58:00,82.9,70.8,29.81,WSW,250,5.0,9.0,67,0.01,,---,0.10,VWS V14.00,2013-03-23 18:58:00,
2013-03-23 15:00:00,83.2,71.1,29.81,SW,217,0.0,9.0,67,0.01,,---,0.10,VWS V14.00,2013-03-23 19:00:00,
2013-03-23 15:03:00,83.5,71.4,29.81,SW,224,0.0,6.0,67,0.01,,---,0.10,VWS V14.00,2013-03-23 19:03:00,
2013-03-23 15:08:00,84.4,71.4,29.81,South,186,0.0,14.0,65,0.01,,---,0.10,VWS V14.00,2013-03-23 19:08:00,
2013-03-23 15:13:00,84.2,71.2,29.80,WSW,237,3.0,14.0,65,0.01,,---,0.10,VWS V14.00,2013-03-23 19:13:00,
2013-03-23 15:18:00,84.3,71.7,29.81,SW,226,0.0,14.0,66,0.01,,---,0.10,VWS V14.00,2013-03-23 19:18:00,
2013-03-23 15:24:00,85.0,71.0,29.81,South,186,4.0,14.0,63,0.01,,---,0.10,VWS V14.00,2013-03-23 19:24:00,
2013-03-23 15:29:00,84.6,71.1,29.80,SW,222,0.0,14.0,64,0.01,,---,0.10,VWS V14.00,2013-03-23 19:29:00,
2013-03-23 15:30:00,84.4,70.4,29.81,SW,234,1.0,14.0,63,0.01,,---,0.10,VWS V14.00,2013-03-23 19:30:00,
2013-03-23 15:34:00,84.2,70.7,29.80,WSW,253,4.0,13.0,64,0.00,,---,0.10,VWS V14.00,2013-03-23 19:34:00,
2013-03-23 15:39:00,84.2,70.7,29.80,WSW,245,0.0,13.0,64,0.00,,---,0.10,VWS V14.00,2013-03-23 19:39:00,
2013-03-23 15:44:00,85.1,71.6,29.79,SSW,210,10.0,13.0,64,0.00,,---,0.10,VWS V14.00,2013-03-23 19:44:00,
2013-03-23 15:50:00,85.4,70.9,29.79,WSW,248,9.0,13.0,62,0.00,,---,0.10,VWS V14.00,2013-03-23 19:50:00,
2013-03-23 15:55:00,85.4,70.9,29.79,WSW,238,0.0,13.0,62,0.00,,---,0.10,VWS V14.00,2013-03-23 19:55:00,
2013-03-23 16:00:00,85.2,70.2,29.78,SSW,207,2.0,13.0,61,0.00,,---,0.10,VWS V14.00,2013-03-23 20:00:00,
2013-03-23 16:06:00,85.3,69.8,29.78,WSW,245,0.0,13.0,60,0.00,,---,0.10,VWS V14.00,2013-03-23 20:06:00,
2013-03-23 16:11:00,85.4,70.4,29.78,SW,232,0.0,13.0,61,0.01,,---,0.11,VWS V14.00,2013-03-23 20:11:00,
2013-03-23 16:17:00,85.6,70.6,29.77,West,268,0.0,13.0,61,0.01,,---,0.11,VWS V14.00,2013-03-23 20:17:00,
2013-03-23 16:22:00,85.7,70.2,29.77,SW,216,1.0,13.0,60,0.01,,---,0.11,VWS V14.00,2013-03-23 20:22:00,
2013-03-23 16:27:00,85.9,70.4,29.77,WSW,254,1.0,13.0,60,0.01,,---,0.11,VWS V14.00,2013-03-23 20:27:00,
2013-03-23 16:30:00,86.0,70.5,29.77,SW,217,0.0,13.0,60,0.01,,---,0.11,VWS V14.00,2013-03-23 20:30:00,
2013-03-23 16:32:00,86.0,70.5,29.77,SSW,196,0.0,0.0,60,0.01,,---,0.11,VWS V14.00,2013-03-23 20:32:00,
2013-03-23 16:37:00,85.9,70.4,29.77,SW,234,0.0,6.0,60,0.01,,---,0.11,VWS V14.00,2013-03-23 20:37:00,
2013-03-23 16:42:00,85.9,70.4,29.77,South,190,0.0,10.0,60,0.01,,---,0.11,VWS V14.00,2013-03-23 20:42:00,
2013-03-23 16:48:00,85.7,69.7,29.77,WSW,237,4.0,15.0,59,0.01,,---,0.11,VWS V14.00,2013-03-23 20:48:00,
2013-03-23 16:53:00,85.2,69.8,29.77,SW,221,0.0,15.0,60,0.01,,---,0.11,VWS V14.00,2013-03-23 20:53:00,
2013-03-23 16:58:00,84.9,70.0,29.77,WSW,245,2.0,15.0,61,0.01,,---,0.11,VWS V14.00,2013-03-23 20:58:00,
2013-03-23 17:00:00,84.9,70.0,29.77,SW,230,5.0,15.0,61,0.01,,---,0.11,VWS V14.00,2013-03-23 21:00:00,
2013-03-23 17:03:00,84.8,69.9,29.77,SW,218,0.0,11.0,61,0.01,,---,0.11,VWS V14.00,2013-03-23 21:03:00,
2013-03-23 17:08:00,84.6,70.6,29.77,SSW,202,5.0,11.0,63,0.01,,---,0.11,VWS V14.00,2013-03-23 21:08:00,
2013-03-23 17:14:00,84.2,70.2,29.77,South,184,0.0,11.0,63,0.01,,---,0.11,VWS V14.00,2013-03-23 21:14:00,
2013-03-23 17:19:00,83.9,70.4,29.77,WSW,248,0.0,11.0,64,0.01,,---,0.11,VWS V14.00,2013-03-23 21:19:00,
2013-03-23 17:24:00,83.9,70.4,29.77,West,260,4.0,11.0,64,0.01,,---,0.11,VWS V14.00,2013-03-23 21:24:00,
2013-03-23 17:29:00,83.8,70.3,29.77,SW,216,0.0,11.0,64,0.01,,---,0.11,VWS V14.00,2013-03-23 21:29:00,
2013-03-23 17:30:00,83.8,70.3,29.77,West,271,5.0,11.0,64,0.01,,---,0.11,VWS V14.00,2013-03-23 21:30:00,
2013-03-23 17:34:00,83.9,70.0,29.78,SSW,210,3.0,9.0,63,0.00,,---,0.11,VWS V14.00,2013-03-23 21:34:00,
2013-03-23 17:39:00,84.1,69.7,29.77,WSW,253,2.0,9.0,62,0.00,,---,0.11,VWS V14.00,2013-03-23 21:39:00,
2013-03-23 17:44:00,84.1,68.7,29.78,SW,218,5.0,13.0,60,0.00,,---,0.11,VWS V14.00,2013-03-23 21:44:00,
2013-03-23 17:50:00,84.0,69.1,29.78,South,190,0.0,13.0,61,0.00,,---,0.11,VWS V14.00,2013-03-23 21:50:00,
2013-03-23 17:55:00,84.0,69.6,29.78,WSW,238,0.0,13.0,62,0.00,,---,0.11,VWS V14.00,2013-03-23 21:55:00,
2013-03-23 18:00:00,84.1,70.2,29.78,SW,225,3.0,13.0,63,0.00,,---,0.11,VWS V14.00,2013-03-23 22:00:00,
2013-03-23 18:05:00,84.0,70.1,29.78,WSW,245,0.0,7.0,63,0.00,,---,0.11,VWS V14.00,2013-03-23 22:05:00,
2013-03-23 18:11:00,83.6,69.7,29.78,SSE,168,0.0,10.0,63,0.00,,---,0.11,VWS V14.00,2013-03-23 22:11:00,
2013-03-23 18:17:00,83.4,69.5,29.78,SW,232,0.0,10.0,63,0.00,,---,0.11,VWS V14.00,2013-03-23 22:17:00,
2013-03-23 18:22:00,83.3,69.9,29.79,South,170,2.0,10.0,64,0.00,,---,0.11,VWS V14.00,2013-03-23 22:22:00,
2013-03-23 18:27:00,83.0,69.1,29.79,NE,56,0.0,10.0,63,0.00,,---,0.11,VWS V14.00,2013-03-23 22:27:00,
2013-03-23 18:30:00,82.9,68.6,29.79,South,187,3.0,11.0,62,0.00,,---,0.11,VWS V14.00,2013-03-23 22:30:00,
2013-03-23 18:32:00,82.9,68.6,29.79,SW,225,0.0,3.0,62,0.00,,---,0.11,VWS V14.00,2013-03-23 22:32:00,
2013-03-23 18:37:00,82.9,68.6,29.79,WSW,243,0.0,4.0,62,0.01,,---,0.12,VWS V14.00,2013-03-23 22:37:00,
2013-03-23 18:42:00,83.0,68.7,29.80,WSW,242,1.0,5.0,62,0.01,,---,0.12,VWS V14.00,2013-03-23 22:42:00,
2013-03-23 18:47:00,82.8,68.5,29.80,SSW,211,0.0,5.0,62,0.01,,---,0.12,VWS V14.00,2013-03-23 22:47:00,
2013-03-23 18:53:00,82.5,68.6,29.80,SSW,195,0.0,8.0,63,0.01,,---,0.12,VWS V14.00,2013-03-23 22:53:00,
2013-03-23 18:58:00,82.4,69.0,29.80,WSW,240,4.0,8.0,64,0.01,,---,0.12,VWS V14.00,2013-03-23 22:58:00,
2013-03-23 19:00:00,82.3,68.9,29.81,SSW,196,0.0,8.0,64,0.01,,---,0.12,VWS V14.00,2013-03-23 23:00:00,
2013-03-23 19:03:00,82.2,69.3,29.81,WNW,287,5.0,8.0,65,0.01,,---,0.12,VWS V14.00,2013-03-23 23:03:00,
2013-03-23 19:09:00,81.9,69.4,29.81,South,187,0.0,9.0,66,0.01,,---,0.12,VWS V14.00,2013-03-23 23:09:00,
2013-03-23 19:14:00,81.5,69.1,29.81,WSW,248,0.0,9.0,66,0.01,,---,0.12,VWS V14.00,2013-03-23 23:14:00,
2013-03-23 19:19:00,80.9,68.9,29.81,SW,222,0.0,9.0,67,0.01,,---,0.12,VWS V14.00,2013-03-23 23:19:00,
2013-03-23 19:24:00,80.7,68.7,29.81,WSW,253,0.0,9.0,67,0.01,,---,0.12,VWS V14.00,2013-03-23 23:24:00,
2013-03-23 19:29:00,80.4,68.4,29.81,SW,232,0.0,9.0,67,0.01,,---,0.12,VWS V14.00,2013-03-23 23:29:00,
2013-03-23 19:30:00,80.3,68.3,29.81,SW,232,0.0,9.0,67,0.01,,---,0.12,VWS V14.00,2013-03-23 23:30:00,
2013-03-23 19:35:00,80.1,68.6,29.81,SW,217,0.0,0.0,68,0.01,,---,0.12,VWS V14.00,2013-03-23 23:35:00,
2013-03-23 19:40:00,79.8,68.3,29.81,SW,233,0.0,4.0,68,0.01,,---,0.12,VWS V14.00,2013-03-23 23:40:00,
2013-03-23 19:45:00,79.5,68.0,29.81,WSW,243,0.0,5.0,68,0.01,,---,0.12,VWS V14.00,2013-03-23 23:45:00,
2013-03-23 19:50:00,79.4,68.3,29.82,WSW,239,0.0,5.0,69,0.01,,---,0.12,VWS V14.00,2013-03-23 23:50:00,
2013-03-23 19:57:00,79.1,68.1,29.82,SW,233,0.0,5.0,69,0.01,,---,0.12,VWS V14.00,2013-03-23 23:57:00,
2013-03-23 20:00:00,79.1,68.1,29.82,SW,234,0.0,5.0,69,0.01,,---,0.12,VWS V14.00,2013-03-24 00:00:00,
2013-03-23 20:02:00,79.1,68.1,29.82,SW,234,0.0,0.0,69,0.00,,---,0.12,VWS V14.00,2013-03-24 00:02:00,
2013-03-23 20:08:00,78.9,67.9,29.82,SW,234,0.0,0.0,69,0.00,,---,0.12,VWS V14.00,2013-03-24 00:08:00,
2013-03-23 20:13:00,78.7,68.1,29.83,SW,234,0.0,0.0,70,0.00,,---,0.12,VWS V14.00,2013-03-24 00:13:00,
2013-03-23 20:18:00,78.5,68.3,29.83,SW,234,0.0,0.0,71,0.00,,---,0.12,VWS V14.00,2013-03-24 00:18:00,
2013-03-23 20:23:00,78.3,68.1,29.83,SW,234,0.0,0.0,71,0.00,,---,0.12,VWS V14.00,2013-03-24 00:23:00,
2013-03-23 20:28:00,78.2,68.0,29.83,SW,234,0.0,0.0,71,0.00,,---,0.12,VWS V14.00,2013-03-24 00:28:00,
2013-03-23 20:30:00,78.1,68.3,29.83,SW,234,0.0,0.0,72,0.00,,---,0.12,VWS V14.00,2013-03-24 00:30:00,
2013-03-23 20:33:00,78.0,68.2,29.83,SW,234,0.0,0.0,72,0.00,,---,0.12,VWS V14.00,2013-03-24 00:33:00,
2013-03-23 20:38:00,77.8,68.1,29.83,SW,234,0.0,0.0,72,0.00,,---,0.12,VWS V14.00,2013-03-24 00:38:00,
2013-03-23 20:44:00,77.4,68.1,29.84,SW,234,0.0,0.0,73,0.00,,---,0.12,VWS V14.00,2013-03-24 00:44:00,
2013-03-23 20:49:00,77.0,68.1,29.84,SW,234,0.0,0.0,74,0.00,,---,0.12,VWS V14.00,2013-03-24 00:49:00,
2013-03-23 20:54:00,76.6,68.1,29.84,SW,234,0.0,0.0,75,0.00,,---,0.12,VWS V14.00,2013-03-24 00:54:00,
2013-03-23 20:59:00,76.2,68.1,29.85,SW,234,0.0,0.0,76,0.00,,---,0.12,VWS V14.00,2013-03-24 00:59:00,
2013-03-23 21:00:00,76.1,68.0,29.85,SW,234,0.0,0.0,76,0.00,,---,0.12,VWS V14.00,2013-03-24 01:00:00,
2013-03-23 21:05:00,75.8,67.7,29.85,NE,44,0.0,3.0,76,0.00,,---,0.12,VWS V14.00,2013-03-24 01:05:00,
2013-03-23 21:10:00,74.9,66.8,29.85,NE,44,0.0,3.0,76,0.00,,---,0.12,VWS V14.00,2013-03-24 01:10:00,
2013-03-23 21:15:00,74.1,66.1,29.86,NE,44,0.0,3.0,76,0.00,,---,0.12,VWS V14.00,2013-03-24 01:15:00,
2013-03-23 21:20:00,73.4,66.1,29.86,NE,44,0.0,3.0,78,0.00,,---,0.12,VWS V14.00,2013-03-24 01:20:00,
2013-03-23 21:25:00,72.8,65.6,29.86,NE,44,0.0,3.0,78,0.00,,---,0.12,VWS V14.00,2013-03-24 01:25:00,
2013-03-23 21:30:00,72.4,65.9,29.87,NE,44,0.0,3.0,80,0.00,,---,0.12,VWS V14.00,2013-03-24 01:30:00,
2013-03-23 21:36:00,71.9,65.4,29.87,NE,44,0.0,0.0,80,0.00,,---,0.12,VWS V14.00,2013-03-24 01:36:00,
2013-03-23 21:41:00,71.5,65.0,29.87,NE,44,0.0,0.0,80,0.00,,---,0.12,VWS V14.00,2013-03-24 01:41:00,
2013-03-23 21:47:00,71.3,64.8,29.87,NE,44,0.0,0.0,80,0.00,,---,0.12,VWS V14.00,2013-03-24 01:47:00,
2013-03-23 21:52:00,71.3,65.2,29.87,NE,44,0.0,0.0,81,0.00,,---,0.12,VWS V14.00,2013-03-24 01:52:00,
2013-03-23 21:57:00,71.1,65.0,29.87,NE,44,0.0,0.0,81,0.00,,---,0.12,VWS V14.00,2013-03-24 01:57:00,
2013-03-23 22:00:00,71.0,64.9,29.88,NE,42,0.0,1.0,81,0.00,,---,0.12,VWS V14.00,2013-03-24 02:00:00,
2013-03-23 22:02:00,71.0,64.9,29.88,NE,42,0.0,0.0,81,0.00,,---,0.12,VWS V14.00,2013-03-24 02:02:00,
2013-03-23 22:07:00,70.9,65.1,29.88,NE,42,0.0,0.0,82,0.00,,---,0.12,VWS V14.00,2013-03-24 02:07:00,
2013-03-23 22:12:00,70.8,65.0,29.88,NE,40,0.0,4.0,82,0.00,,---,0.12,VWS V14.00,2013-03-24 02:12:00,
2013-03-23 22:18:00,70.6,64.8,29.88,NE,38,0.0,4.0,82,0.00,,---,0.12,VWS V14.00,2013-03-24 02:18:00,
2013-03-23 22:23:00,70.5,64.8,29.88,ENE,69,0.0,4.0,82,0.00,,---,0.12,VWS V14.00,2013-03-24 02:23:00,
2013-03-23 22:28:00,70.4,65.0,29.88,ENE,69,0.0,4.0,83,0.00,,---,0.12,VWS V14.00,2013-03-24 02:28:00,
2013-03-23 22:30:00,70.3,64.9,29.89,ENE,68,0.0,4.0,83,0.00,,---,0.12,VWS V14.00,2013-03-24 02:30:00,
2013-03-23 22:33:00,70.2,64.8,29.89,ENE,69,0.0,0.0,83,0.00,,---,0.12,VWS V14.00,2013-03-24 02:33:00,
2013-03-23 22:38:00,70.1,64.7,29.89,ENE,69,0.0,1.0,83,0.00,,---,0.12,VWS V14.00,2013-03-24 02:38:00,
2013-03-23 22:43:00,69.9,64.5,29.88,ENE,69,0.0,1.0,83,0.00,,---,0.12,VWS V14.00,2013-03-24 02:43:00,
2013-03-23 22:48:00,69.7,64.7,29.88,ENE,68,0.0,1.0,84,0.00,,---,0.12,VWS V14.00,2013-03-24 02:48:00,
2013-03-23 22:53:00,69.5,64.5,29.88,ENE,69,0.0,1.0,84,0.00,,---,0.12,VWS V14.00,2013-03-24 02:53:00,
2013-03-23 22:58:00,69.3,64.3,29.88,East,86,0.0,3.0,84,0.00,,---,0.12,VWS V14.00,2013-03-24 02:58:00,
2013-03-23 23:00:00,69.2,64.2,29.88,East,86,0.0,3.0,84,0.00,,---,0.12,VWS V14.00,2013-03-24 03:00:00,
2013-03-23 23:03:00,69.1,64.4,29.88,East,86,0.0,0.0,85,0.00,,---,0.12,VWS V14.00,2013-03-24 03:03:00,
2013-03-23 23:09:00,69.0,64.3,29.88,East,86,0.0,0.0,85,0.00,,---,0.12,VWS V14.00,2013-03-24 03:09:00,
2013-03-23 23:14:00,68.8,64.1,29.88,East,86,0.0,0.0,85,0.00,,---,0.12,VWS V14.00,2013-03-24 03:14:00,
2013-03-23 23:19:00,68.6,64.2,29.88,East,86,0.0,0.0,86,0.00,,---,0.12,VWS V14.00,2013-03-24 03:19:00,
2013-03-23 23:24:00,68.4,64.1,29.87,East,86,0.0,0.0,86,0.00,,---,0.12,VWS V14.00,2013-03-24 03:24:00,
2013-03-23 23:29:00,68.3,64.3,29.87,East,86,0.0,0.0,87,0.00,,---,0.12,VWS V14.00,2013-03-24 03:29:00,
2013-03-23 23:30:00,68.2,64.2,29.88,East,86,0.0,0.0,87,0.00,,---,0.12,VWS V14.00,2013-03-24 03:30:00,
2013-03-23 23:34:00,68.2,64.2,29.87,East,86,0.0,0.0,87,0.00,,---,0.12,VWS V14.00,2013-03-24 03:34:00,
2013-03-23 23:40:00,68.2,64.5,29.87,East,86,0.0,0.0,88,0.00,,---,0.12,VWS V14.00,2013-03-24 03:40:00,
2013-03-23 23:45:00,68.0,64.3,29.87,East,86,0.0,0.0,88,0.00,,---,0.12,VWS V14.00,2013-03-24 03:45:00,
2013-03-23 23:50:00,68.0,64.3,29.86,East,86,0.0,0.0,88,0.00,,---,0.12,VWS V14.00,2013-03-24 03:50:00,
2013-03-23 23:55:00,68.1,64.4,29.85,East,86,0.0,0.0,88,0.00,,---,0.12,VWS V14.00,2013-03-24 03:55:00,